APL Coral — WDF6832 — position and weather

sailwx.info

Track history (hours):
 
Tides and Currents Weather Stations Pressure Air Temp Water Temp Dewpoint Dewpoint Depression Visibility Wind Speed Wind Dir Waves Ship Positions

APL Coral

Owner: APL Maritime Ltd., Bethesda, MD. More information available from US FCC via Universal Licensing System and Coast Guard Vessel Documentation Center.

Last reported at 2015-Mar-02 19:21 UTC. Time now 2015-Mar-02 20:33 UTC.
Position N 31°54' W 080°32'.

Length 275 m; draft 12 m.

Type: Cargo ship. MMSI: 367478280.

Date/timePositionNaut miles runAvg speedWind from/ knotsBaromVisibWave heightAir tempDewpointWater temp
2015-Mar-02 19:21N 31°54' W 080°32'0 0.1
2015-Mar-02 17:26N 31°54' W 080°32'0 0.2
2015-Mar-02 16:32N 31°54' W 080°32'0 0.0
2015-Mar-02 15:33N 31°54' W 080°32'0 0.0
2015-Mar-02 14:32N 31°54' W 080°32'0 0.0
2015-Mar-02 13:33N 31°54' W 080°32'0 0.1
2015-Mar-02 12:29N 31°54' W 080°32'0 0.2
2015-Mar-02 11:26N 31°54' W 080°32'0 0.1
2015-Mar-02 10:11N 31°54' W 080°32'3 4.2
2015-Mar-02 09:33N 31°55' W 080°29'10 8.6
2015-Mar-02 08:26N 31°58' W 080°19'9 9.6
2015-Mar-02 07:32N 32°01' W 080°09'14419.1
2015-Mar-02 00:00N 33°06' W 077°36'41017.9 100 / 241026.010.8 2.021.017.822.0
2015-Mar-01 01:07N 39°15' W 073°54'1520.0
2015-Mar-01 00:23N 39°29' W 073°53'1619.8
2015-Feb-28 23:33N 39°45' W 073°52'1717.2
2015-Feb-28 22:33N 40°03' W 073°51'1510.7
2015-Feb-28 21:11N 40°17' W 073°49'7 9.5
2015-Feb-28 20:24N 40°25' W 073°49'10 9.3
2015-Feb-28 19:18N 40°31' W 073°59'912.1
2015-Feb-28 18:34N 40°39' W 074°05'3 3.1
2015-Feb-28 17:34N 40°40' W 074°08'0 0.1
2015-Feb-28 16:32N 40°40' W 074°08'0 0.0
2015-Feb-28 15:32N 40°40' W 074°08'0 0.0
2015-Feb-28 14:29N 40°40' W 074°08'0 0.0
2015-Feb-28 13:29N 40°40' W 074°08'0 0.0
2015-Feb-28 12:32N 40°40' W 074°08'0 0.0
2015-Feb-28 11:32N 40°40' W 074°09'0 0.0
2015-Feb-28 10:29N 40°40' W 074°09'0 0.0
2015-Feb-28 09:32N 40°40' W 074°09'0 0.0
2015-Feb-28 08:32N 40°40' W 074°08'0 0.0
2015-Feb-28 07:29N 40°40' W 074°08'0 0.0
2015-Feb-28 06:32N 40°40' W 074°09'0 0.0
2015-Feb-28 05:32N 40°40' W 074°08'0 0.0
2015-Feb-28 04:32N 40°40' W 074°08'0 0.0
2015-Feb-28 03:32N 40°40' W 074°09'0 0.0
2015-Feb-28 02:32N 40°40' W 074°08'0 0.0
2015-Feb-28 01:32N 40°40' W 074°09'0 0.0
2015-Feb-28 00:26N 40°40' W 074°09'0 0.0
2015-Feb-27 23:23N 40°40' W 074°09'0 0.0
2015-Feb-27 22:29N 40°40' W 074°08'0 0.0
2015-Feb-27 21:32N 40°40' W 074°08'0 0.0
2015-Feb-27 20:29N 40°40' W 074°09'0 0.0
2015-Feb-27 19:32N 40°40' W 074°09'0 0.0
2015-Feb-27 18:32N 40°40' W 074°09'0 0.2
2015-Feb-27 17:33N 40°40' W 074°09'4 3.7
2015-Feb-27 16:33N 40°39' W 074°04'1110.5
2015-Feb-27 15:33N 40°30' W 073°57'9 8.8
2015-Feb-27 14:33N 40°27' W 073°46'16 7.9
2015-Feb-27 12:31N 40°28' W 073°25'2914.9
2015-Feb-27 10:32N 40°30' W 072°46'1818.3
2015-Feb-27 09:33N 40°31' W 072°23'1818.3
2015-Feb-27 08:33N 40°31' W 071°59'1818.4
2015-Feb-27 07:33N 40°32' W 071°34'1918.6
2015-Feb-27 06:33N 40°32' W 071°10'1918.7
2015-Feb-27 05:32N 40°33' W 070°45'1918.8
2015-Feb-27 04:33N 40°33' W 070°21'1918.8
2015-Feb-27 03:34N 40°34' W 069°56'  
2015-Feb-24 06:00N 42°00' W 054°48'43818.2 270 / 15999.5 5.4 10.5 9.515.0
2015-Feb-23 06:00N 41°48' W 045°00'33218.4 180 / 201033.0 2.012.0 4.319.0
2015-Feb-22 12:00N 41°00' W 037°42'17319.5 270 / 301031.010.8 2.010.9 9.517.0
2015-Feb-22 03:09N 40°25' W 033°59'1118.4
2015-Feb-22 02:33N 40°23' W 033°45'1918.7
2015-Feb-22 01:33N 40°18' W 033°21'2019.2
2015-Feb-22 00:32N 40°14' W 032°56'4019.3
2015-Feb-21 22:28N 40°04' W 032°05'1719.3
2015-Feb-21 21:33N 40°01' W 031°43'1918.6
2015-Feb-21 20:33N 39°58' W 031°18'1919.0
2015-Feb-21 19:33N 39°56' W 030°54'1818.3
2015-Feb-21 18:33N 39°52' W 030°31'1918.7
2015-Feb-21 17:33N 39°49' W 030°06'1918.6
2015-Feb-21 16:33N 39°46' W 029°43'1818.5
2015-Feb-21 15:34N 39°44' W 029°19'1918.7
2015-Feb-21 14:34N 39°42' W 028°55'1918.6
2015-Feb-21 13:33N 39°39' W 028°31'1818.5
2015-Feb-21 12:34N 39°37' W 028°07'1918.6
2015-Feb-21 11:33N 39°35' W 027°43'1918.9
2015-Feb-21 10:33N 39°32' W 027°19'1919.0
2015-Feb-21 09:32N 39°30' W 026°54'1918.9
2015-Feb-21 08:33N 39°27' W 026°30'1918.8
2015-Feb-21 07:33N 39°24' W 026°06'1919.0
2015-Feb-21 06:33N 39°22' W 025°41'1918.8
2015-Feb-21 05:33N 39°19' W 025°17'1918.5
2015-Feb-21 04:32N 39°16' W 024°53'3718.7
2015-Feb-21 02:31N 39°10' W 024°06'1818.3
2015-Feb-21 01:32N 39°07' W 023°42'2516.0
2015-Feb-21 00:00N 39°00' W 023°12'1226.4 320 / 171031.210.8 1.016.212.416.0
2015-Feb-20 23:32N 39°00' W 022°56'1918.5
2015-Feb-20 22:32N 38°57' W 022°33'  
Track history (hours):
 
Tides and Currents Weather Stations Pressure Air Temp Water Temp Dewpoint Dewpoint Depression Visibility Wind Speed Wind Dir Waves Ship Positions

APL Coral

Owner: APL Maritime Ltd., Bethesda, MD. More information available from US FCC via Universal Licensing System and Coast Guard Vessel Documentation Center.

Last reported at 2015-Mar-02 19:21 UTC. Time now 2015-Mar-02 20:33 UTC.
Position N 31°54' W 080°32'.

Length 275 m; draft 12 m.

Type: Cargo ship. MMSI: 367478280.

Date/timePositionNaut miles runAvg speedWind from/ knotsBaromVisibWave heightAir tempDewpointWater temp
2015-Mar-02 19:21N 31°54' W 080°32'0 0.1
2015-Mar-02 17:26N 31°54' W 080°32'0 0.2
2015-Mar-02 16:32N 31°54' W 080°32'0 0.0
2015-Mar-02 15:33N 31°54' W 080°32'0 0.0
2015-Mar-02 14:32N 31°54' W 080°32'0 0.0
2015-Mar-02 13:33N 31°54' W 080°32'0 0.1
2015-Mar-02 12:29N 31°54' W 080°32'0 0.2
2015-Mar-02 11:26N 31°54' W 080°32'0 0.1
2015-Mar-02 10:11N 31°54' W 080°32'3 4.2
2015-Mar-02 09:33N 31°55' W 080°29'10 8.6
2015-Mar-02 08:26N 31°58' W 080°19'9 9.6
2015-Mar-02 07:32N 32°01' W 080°09'14419.1
2015-Mar-02 00:00N 33°06' W 077°36'41017.9 100 / 241026.010.8 2.021.017.822.0
2015-Mar-01 01:07N 39°15' W 073°54'1520.0
2015-Mar-01 00:23N 39°29' W 073°53'1619.8
2015-Feb-28 23:33N 39°45' W 073°52'1717.2
2015-Feb-28 22:33N 40°03' W 073°51'1510.7
2015-Feb-28 21:11N 40°17' W 073°49'7 9.5
2015-Feb-28 20:24N 40°25' W 073°49'10 9.3
2015-Feb-28 19:18N 40°31' W 073°59'912.1
2015-Feb-28 18:34N 40°39' W 074°05'3 3.1
2015-Feb-28 17:34N 40°40' W 074°08'0 0.1
2015-Feb-28 16:32N 40°40' W 074°08'0 0.0
2015-Feb-28 15:32N 40°40' W 074°08'0 0.0
2015-Feb-28 14:29N 40°40' W 074°08'0 0.0
2015-Feb-28 13:29N 40°40' W 074°08'0 0.0
2015-Feb-28 12:32N 40°40' W 074°08'0 0.0
2015-Feb-28 11:32N 40°40' W 074°09'0 0.0
2015-Feb-28 10:29N 40°40' W 074°09'0 0.0
2015-Feb-28 09:32N 40°40' W 074°09'0 0.0
2015-Feb-28 08:32N 40°40' W 074°08'0 0.0
2015-Feb-28 07:29N 40°40' W 074°08'0 0.0
2015-Feb-28 06:32N 40°40' W 074°09'0 0.0
2015-Feb-28 05:32N 40°40' W 074°08'0 0.0
2015-Feb-28 04:32N 40°40' W 074°08'0 0.0
2015-Feb-28 03:32N 40°40' W 074°09'0 0.0
2015-Feb-28 02:32N 40°40' W 074°08'0 0.0
2015-Feb-28 01:32N 40°40' W 074°09'0 0.0
2015-Feb-28 00:26N 40°40' W 074°09'0 0.0
2015-Feb-27 23:23N 40°40' W 074°09'0 0.0
2015-Feb-27 22:29N 40°40' W 074°08'0 0.0
2015-Feb-27 21:32N 40°40' W 074°08'0 0.0
2015-Feb-27 20:29N 40°40' W 074°09'0 0.0
2015-Feb-27 19:32N 40°40' W 074°09'0 0.0
2015-Feb-27 18:32N 40°40' W 074°09'0 0.2
2015-Feb-27 17:33N 40°40' W 074°09'4 3.7
2015-Feb-27 16:33N 40°39' W 074°04'1110.5
2015-Feb-27 15:33N 40°30' W 073°57'9 8.8
2015-Feb-27 14:33N 40°27' W 073°46'16 7.9
2015-Feb-27 12:31N 40°28' W 073°25'2914.9
2015-Feb-27 10:32N 40°30' W 072°46'1818.3
2015-Feb-27 09:33N 40°31' W 072°23'1818.3
2015-Feb-27 08:33N 40°31' W 071°59'1818.4
2015-Feb-27 07:33N 40°32' W 071°34'1918.6
2015-Feb-27 06:33N 40°32' W 071°10'1918.7
2015-Feb-27 05:32N 40°33' W 070°45'1918.8
2015-Feb-27 04:33N 40°33' W 070°21'1918.8
2015-Feb-27 03:34N 40°34' W 069°56'  
2015-Feb-24 06:00N 42°00' W 054°48'43818.2 270 / 15999.5 5.4 10.5 9.515.0
2015-Feb-23 06:00N 41°48' W 045°00'33218.4 180 / 201033.0 2.012.0 4.319.0
2015-Feb-22 12:00N 41°00' W 037°42'17319.5 270 / 301031.010.8 2.010.9 9.517.0
2015-Feb-22 03:09N 40°25' W 033°59'1118.4
2015-Feb-22 02:33N 40°23' W 033°45'1918.7
2015-Feb-22 01:33N 40°18' W 033°21'2019.2
2015-Feb-22 00:32N 40°14' W 032°56'4019.3
2015-Feb-21 22:28N 40°04' W 032°05'1719.3
2015-Feb-21 21:33N 40°01' W 031°43'1918.6
2015-Feb-21 20:33N 39°58' W 031°18'1919.0
2015-Feb-21 19:33N 39°56' W 030°54'1818.3
2015-Feb-21 18:33N 39°52' W 030°31'1918.7
2015-Feb-21 17:33N 39°49' W 030°06'1918.6
2015-Feb-21 16:33N 39°46' W 029°43'1818.5
2015-Feb-21 15:34N 39°44' W 029°19'1918.7
2015-Feb-21 14:34N 39°42' W 028°55'1918.6
2015-Feb-21 13:33N 39°39' W 028°31'1818.5
2015-Feb-21 12:34N 39°37' W 028°07'1918.6
2015-Feb-21 11:33N 39°35' W 027°43'1918.9
2015-Feb-21 10:33N 39°32' W 027°19'1919.0
2015-Feb-21 09:32N 39°30' W 026°54'1918.9
2015-Feb-21 08:33N 39°27' W 026°30'1918.8
2015-Feb-21 07:33N 39°24' W 026°06'1919.0
2015-Feb-21 06:33N 39°22' W 025°41'1918.8
2015-Feb-21 05:33N 39°19' W 025°17'1918.5
2015-Feb-21 04:32N 39°16' W 024°53'3718.7
2015-Feb-21 02:31N 39°10' W 024°06'1818.3
2015-Feb-21 01:32N 39°07' W 023°42'2516.0
2015-Feb-21 00:00N 39°00' W 023°12'1226.4 320 / 171031.210.8 1.016.212.416.0
2015-Feb-20 23:32N 39°00' W 022°56'1918.5
2015-Feb-20 22:32N 38°57' W 022°33'  

Dump ship's entire track history